星链-30503 (STARLINK-30503 )

导读

STARLINK-30503是美国太空探索技术公司Starlink星链互联网卫星星座的一员,由美国于2023年9月30日发射升空。星链星座旨在为全球提供高速低延迟的互联网覆盖服务,该卫星入轨后参与星座组网,进一步扩展了星链系统的全球服务能力,推动低轨卫星互联网建设进程。

基本信息
目录编号:
57975
目录名称:
STARLINK-30503
国际标识:
2023-151M
轨道中心:
EARTH
卫星名称:
星链-30503
卫星全名:
星链-30503 (STARLINK-30503 )
卫星状态:
在轨 (已飞行991 天)
发射日期:
2023-09-30 UTC
国别 :
美国 (US)
星等 :
--
轨道信息
数据来源 国际轨道数据 AOE轨道数据
星历时间 2026-06-17T13:11:59+0800
6小时前
查看轨道信息
2026-06-16T23:00:00+0800
20小时前
查看轨道信息
半长轴 6861.202km 6861.172km
偏心率 0.0000985 0.0000214
轨道倾角 43.002° 43.001°
近地点辐角 260.807° 246.691°
升交点赤经 134.248° 137.591°
平近点角 99.267° 95.949°
近地点 482.389km 482.888km
远地点 483.741km 483.182km
周期 94.267分钟 94.266分钟
每日圈数 15.27575 15.275849
详细信息
固有亮度:
5
最大亮度:
0.3
卫星平台:
Starlink v2.0 mini
覆盖范围:
全球
运营商:
太空探索技术公司
运营商所在国:
美国
制造商(研发单位):
太空探索技术公司
制造商所在国:
美国
使用方式:
暂无
卫星简介
星链(Starlink)计划是由太空探索技术公司(SpaceX)提出的一个巨型低轨卫星互联网星座项目,计划在2019年至2024年间在太空搭建由约1.2万颗卫星组成的“星链”网络,其中1584颗将部署在地球上空550千米处的近地轨道,并从2020年开始工作。该卫星仍在工作。
2D轨道图
3D轨道图
轨道高度分析图
轨道倾角分析图
轨道综合分析图
查看轨道综合分析图